Bad Gastein, Austria 16 day weather forecast

Slopes altitude range 860 m - 2685m

Number of lifts: 42 Pistes: 201km

In some cases the lift and piste totals shown are for the ski domain (e.g. Three Valleys) rather than individual resort (e.g. Courchevel)

Overview

The 16 day weather forecast is fully updated 4 times every day.

    • Mon 22 APR 2019
    • Mon 22
    • 1C 5C
    • Tue 23 APR 2019
    • Tue 23
    • 0C 2C
    • Wed 24 APR 2019
    • Wed 24
    • 2C 4C
    • Thu 25 APR 2019
    • Thu 25
    • 3C 6C
    • Fri 26 APR 2019
    • Fri 26
    • 3C 8C
    • Sat 27 APR 2019
    • Sat 27
    • -1C 3C
    • Sun 28 APR 2019
    • Sun 28
    • 3C 9C
    • Mon 29 APR 2019
    • Mon 29
    • 4C 8C
    • Tue 30 APR 2019
    • Tue 30
    • -3C 0C
    • Wed 01 MAY 2019
    • Wed 01
    • -4C 0C
    • Thu 02 MAY 2019
    • Thu 02
    • -8C 1C
    • Fri 03 MAY 2019
    • Fri 03
    • -5C 3C
    • Sat 04 MAY 2019
    • Sat 04
    • -3C 6C
    • Sun 05 MAY 2019
    • Sun 05
    • 3C 11C
    • Mon 06 MAY 2019
    • Mon 06
    • 1C 4C
    • Tue 07 MAY 2019
    • Tue 07
    • -2C 1C

Date:

Time Type 0°C level Temp Chill Snow Cloud Speed Gust Dir Press
3:00 2785m 0°C 0_4 0cm 96% 4mph 5mph 1017mB
6:00 2875m -1°C -1_6 0cm 93% 6mph 6mph 1015mB
9:00 2916m 1°C 1_8 0cm 68% 8mph 9mph 1012mB
12:00 2836m 5°C 5_8 0cm 76% 8mph 9mph 1009mB
15:00 2798m 6°C 6_9 0cm 20% 9mph 11mph 1007mB
18:00 2278m 6°C 6_10 0cm 30% 10mph 15mph 1008mB
21:00 2030m 0°C 0_11 0cm 100% 11mph 15mph 1008mB
0:00 1841m -1°C -1_11 0cm 100% 11mph 16mph 1008mB
3:00 1932m -1°C -1_11 0cm 100% 11mph 16mph 1006mB
6:00 2028m -1°C -1_11 1cm 100% 11mph 16mph 1005mB
9:00 2153m 0°C 0_11 1cm 100% 11mph 16mph 1004mB
12:00 2095m 2°C 2_11 1cm 100% 11mph 15mph 1003mB
15:00 2077m 1°C 1_10 1cm 100% 10mph 14mph 1003mB
18:00 2220m 1°C 1_10 1cm 100% 10mph 15mph 1004mB
21:00 2708m 0°C 0_10 0cm 100% 10mph 16mph 1006mB
0:00 2628m 0°C 0_11 0cm 100% 11mph 16mph 1007mB
3:00 2686m 1°C 1_11 0cm 100% 11mph 17mph 1008mB
6:00 2687m 1°C 1_12 0cm 100% 12mph 17mph 1009mB
9:00 2470m 2°C 2_13 0cm 100% 13mph 18mph 1010mB
12:00 2532m 4°C 4_13 0cm 100% 13mph 17mph 1011mB
15:00 2882m 4°C 4_13 0cm 100% 13mph 17mph 1010mB
18:00 2999m 4°C 4_13 0cm 100% 13mph 20mph 1012mB
21:00 2645m 3°C 3_12 0cm 100% 12mph 19mph 1015mB
0:00 2699m 3°C 3_10 0cm 100% 10mph 14mph 1017mB
3:00 2585m 3°C 3_11 0cm 100% 11mph 16mph 1018mB
6:00 2449m 3°C 3_12 0cm 100% 12mph 17mph 1017mB
9:00 2534m 3°C 3_14 0cm 100% 14mph 18mph 1017mB
12:00 2705m 6°C 6_14 0cm 100% 14mph 17mph 1015mB
15:00 2764m 6°C 6_13 0cm 99% 13mph 17mph 1015mB
18:00 3206m 6°C 6_12 0cm 99% 12mph 17mph 1016mB
21:00 3050m 3°C 3_12 0cm 100% 12mph 17mph 1017mB
0:00 2902m 3°C 3_11 0cm 100% 11mph 16mph 1016mB
3:00 2678m 3°C 3_10 0cm 100% 10mph 15mph 1015mB
6:00 2511m 3°C 3_11 0cm 100% 11mph 16mph 1014mB
9:00 2471m 3°C 3_12 0cm 100% 12mph 15mph 1014mB
12:00 2600m 8°C 8_13 0cm 81% 13mph 14mph 1015mB
15:00 2383m 8°C 8_5 5cm 76% 5mph 7mph 1017mB
18:00 1471m 8°C 8_10 6cm 88% 10mph 14mph 1020mB
21:00 1515m -4°C -4_10 1cm 100% 10mph 15mph 1022mB
0:00 1518m -4°C -4_11 1cm 97% 11mph 14mph 1022mB
3:00 1461m -3°C -3_11 1cm 79% 11mph 16mph 1024mB
6:00 1712m -3°C -3_13 1cm 87% 13mph 18mph 1025mB
9:00 1971m -1°C -1_12 1cm 68% 12mph 13mph 1024mB
12:00 2151m 3°C 3_10 1cm 42% 10mph 11mph 1023mB
15:00 2222m 4°C 4_11 0cm 12% 11mph 12mph 1023mB
18:00 2028m 4°C 4_8 0cm 8% 8mph 11mph 1025mB
21:00 1666m -2°C -2_7 0cm 77% 7mph 7mph 1027mB
0:00 1670m -2°C -2_6 0cm 88% 6mph 6mph 1027mB
3:00 1693m -2°C -2_5 0cm 91% 5mph 6mph 1026mB
6:00 2605m -2°C -2_5 0cm 95% 5mph 6mph 1025mB
9:00 2586m 3°C 3_2 0cm 100% 2mph 2mph 1023mB
12:00 2755m 9°C 9_2 0cm 100% 2mph 3mph 1022mB
15:00 2819m 9°C 9_2 0cm 99% 2mph 2mph 1020mB
18:00 2807m 9°C 9_1 0cm 100% 1mph 2mph 1021mB
21:00 2185m 0°C 0_2 0cm 91% 2mph 3mph 1022mB
0:00 2149m 0°C 0_2 0cm 95% 2mph 3mph 1021mB
3:00 2190m -1°C -1_4 0cm 98% 4mph 5mph 1019mB
6:00 2715m -1°C -1_5 0cm 98% 5mph 7mph 1017mB
9:00 2688m 4°C 4_7 0cm 99% 7mph 8mph 1014mB
12:00 2758m 8°C 8_10 0cm 99% 10mph 11mph 1011mB
15:00 2764m 8°C 8_9 0cm 100% 9mph 11mph 1008mB
18:00 2728m 9°C 9_5 0cm 100% 5mph 6mph 1008mB
21:00 2680m 4°C 4_5 0cm 100% 5mph 7mph 1008mB
0:00 2590m 3°C 3_7 0cm 100% 7mph 10mph 1006mB
3:00 2449m 2°C 2_2 0cm 100% 2mph 3mph 1006mB
6:00 2018m 0°C 0_11 5cm 100% 11mph 15mph 1006mB
9:00 1543m -3°C -3_10 7cm 100% 10mph 14mph 1007mB
12:00 1552m 0°C 0_8 6cm 100% 8mph 12mph 1008mB
15:00 1667m -2°C -2_7 7cm 100% 7mph 10mph 1008mB
18:00 1613m -2°C -2_8 6cm 100% 8mph 13mph 1010mB
21:00 1399m -4°C -4_8 1cm 99% 8mph 12mph 1013mB
0:00 777m -8°C -8_7 1cm 89% 7mph 7mph 1014mB
3:00 518m -9°C -9_6 0cm 36% 6mph 7mph 1015mB
6:00 1313m -9°C -9_7 0cm 27% 7mph 9mph 1014mB
9:00 1734m -4°C -4_4 0cm 49% 4mph 5mph 1013mB
12:00 1837m 0°C 0_3 1cm 73% 3mph 4mph 1011mB
15:00 1933m 0°C 0_3 3cm 76% 3mph 4mph 1010mB
18:00 1777m 0°C 0_4 4cm 88% 4mph 5mph 1012mB
21:00 1547m -3°C -3_4 1cm 100% 4mph 4mph 1014mB
0:00 1152m -5°C -5_2 1cm 97% 2mph 3mph 1014mB
Afternoon 0.328125mm 0.5625 2007m 1°C 1_3 4cm 80% 3mph 5mph 1009mB
Morning 0.838542mm 0.75 1187m -5°C -5_2 7cm 83% 2mph 2mph 1014mB
Afternoon 0.0260417mm 0.1875 2364m 3°C 3_9 0cm 58% 9mph 12mph 1009mB
Morning 0.0260417mm 0.25 1521m -3°C -3_8 0cm 68% 8mph 9mph 1011mB
Afternoon 0mm 0 2710m 6°C 6_14 0cm 60% 14mph 19mph 1005mB
Morning 0.0208333mm 0 3302m 2°C 2_11 0cm 97% 11mph 20mph 1005mB
Afternoon 0.0416667mm 0.1875 3045m 11°C 11_14 0cm 85% 14mph 18mph 1001mB
Morning 0.0833333mm 0.375 2626m 4°C 4_13 0cm 78% 13mph 25mph 997mB
Afternoon 0.442708mm 0.5 2218m 4°C 4_10 0cm 93% 10mph 14mph 1001mB
Morning 1.09375mm 0.5625 1981m 1°C 1_6 9cm 100% 6mph 10mph 1008mB
Afternoon 1.44792mm 0.125 1593m 1°C 1_10 12cm 100% 10mph 13mph 1013mB
Morning 0.901042mm 0.125 1108m -5°C -5_8 7cm 100% 8mph 14mph 1020mB

16 day outlook at a glance

Forecast issued: 22/04/2019 08:04:34

Chat

Your comments and questions. In a resort? Let us know what it's like!


Characters left 250

For terms and conditions see Readers Comments on the Cookie and privacy policy page.